カタログに戻る

STARLINK-3399

運用中通信VLEO
NORAD 51121·PAYLOAD·🇺🇸 United States

打ち上げ Jan 19, 2022 から Cape Canaveral Space Force Station

Loading…

次のパス (今後24時間)

TLE

最新Source: CelesTrak SupGP

元期: Sep 14, 2026, 20:35 UTC

1 51121C 22005T   26257.85812500 -.00030626  00000+0 -19211-2 0  2571
2 51121  53.1586 159.2910 0001720  93.1253 299.1528 15.08839811    11

AllMySatでSTARLINK-3399をリアルタイム追跡

Download on the App Store